Tracking 28920 objects as of 26-May-2024
HD Live streaming from Space Station
objects crossing your sky now

STARLINK-31375

Track STARLINK-31375 now!
10-day predictions


NORAD ID: 59472
Int'l Code: 2024-068T
Perigee: 450.3 km
Apogee: 452.0 km
Inclination: 43.0 °
Period: 93.5 minutes
Semi major axis: 6822 km
RCS: Unknown
Launch date: April 10, 2024
Source: United States (US)
Launch site: AIR FORCE EASTERN TEST RANGE (AFETR)
Your satellite tracking list
Your tracking list is empty




NASA's NSSDC Master Catalog

Two Line Element Set (TLE):
1 59472U 24068T   24147.38808070 -.00001104  00000-0 -19159-4 0  9996
2 59472  43.0005 147.6210 0001230 248.6721 111.4004 15.40703553  8426
Source of the keplerian elements: AFSPC